Location: Liscomb Game Sanctuary
(45.1633°N, 62.5575°W)
Time: 09:08:17
(UTC-03:00)

Okean 2 Rocket - Pass Details

Date: 22 February 2018
Orbit: 617 x 641 km, 82.5° (Epoch: 18 June)

Event Time Altitude Azimuth Distance (km) Brightness Sun altitude
Rises 20:09:00 0° 201° (SSW) 2,877 6.6 -25.5°
Reaches altitude 10° 20:11:16 10° 206° (SSW) 1,977 5.8 -25.9°
Maximum altitude 20:15:31 50° 282° (WNW) 795 3.9 -26.6°
Drops below altitude 10° 20:19:49 10° 359° (N) 2,000 5.8 -27.3°
Sets 20:22:08 0° 4° (N) 2,915 6.6 -27.7°
